Frenchville, ME

5:59 PM EDT on June 25, 2017 (GMT -0400)
Northern Aroostook Regional

Weather History for KFVE - November, 2010

Change the Weather History Date:

Thursday, November 25, 2010

  Actual Average Record
Temperature  
Mean Temperature 25 °F 26 °F  
Max Temperature 27 °F 32 °F 54 °F (2004)
Min Temperature 22 °F 20 °F 6 °F (1996)
Degree Days  
Heating Degree Days 40    
Month to date heating degree days 815  
Since 1 July heating degree days 1943  
Cooling Degree Days 0    
Month to date cooling degree days 0  
Year to date cooling degree days 268  
Moisture  
Dew Point 19 °F    
Average Humidity 82    
Maximum Humidity 88    
Minimum Humidity 74    
Precipitation  
Precipitation T in 0.10 in 1.04 in (2004)
Month to date precipitation 2.46 2.44  
Year to date precipitation 32.70 30.56  
Sea Level Pressure  
Sea Level Pressure 29.94 in    
Wind  
Wind Speed 14 mph (NW)    
Max Wind Speed 26 mph    
Max Gust Speed 39 mph    
Visibility 9 miles    
Events Rain , Snow    
T = Trace of Precipitation, MM = Missing Value Source: NWS Daily Summary

Daily Weather History Graph

Daily Weather History Graph

Search for Another Location

Airport or City:

Trip Planner

Search our weather history database for the weather conditions in past years. The results will help you decide how hot, cold, wet, or windy it might be!

Date:

Astronomy

Nov. 25, 2010 Rise Set
Actual Time 6:51 AM EST 3:48 PM EST
Civil Twilight 6:17 AM EST 4:22 PM EST
Nautical Twilight 5:39 AM EST 5:00 PM EST
Astronomical Twilight 5:02 AM EST 5:37 PM EST
Moon 7:42 PM EST 10:19 AM EST
Length of Visible Light 10h 05m
Length of Day
8h 57m
Waning Gibbous, 83% of the Moon is Illuminated
Nov 25
Waning Gibbous
Nov 28
Last Quarter
Dec 5
New
Dec 13
First Quarter
Dec 21
Full

Hourly Weather History & Observations

Time (EST) Temp. Windchill Dew Point Humidity Pressure Visibility Wind Dir Wind Speed Gust Speed Precip Events Conditions
12:53 AM 23.0 °F 7.2 °F 17.1 °F 78% 29.86 in 10.0 mi NW 23.0 mph 34.5 mph N/A   Overcast
1:53 AM 23.0 °F 8.0 °F 17.1 °F 78% 29.88 in 10.0 mi NW 20.7 mph 33.4 mph N/A   Overcast
2:53 AM 23.0 °F 10.6 °F 17.6 °F 80% 29.85 in 10.0 mi NW 13.8 mph 25.3 mph N/A   Overcast
3:53 AM 21.9 °F 7.8 °F 18.0 °F 85% 29.91 in 10.0 mi NW 17.3 mph 28.8 mph N/A   Overcast
4:24 AM 21.2 °F 6.4 °F 17.6 °F 86% 29.86 in 10.0 mi NW 18.4 mph 23.0 mph N/A   Overcast
4:53 AM 21.9 °F 8.2 °F 17.1 °F 82% 29.92 in 10.0 mi NW 16.1 mph 23.0 mph N/A   Mostly Cloudy
5:00 AM 21.2 °F 7.8 °F 17.6 °F 86% 29.88 in 10.0 mi NW 15.0 mph 20.7 mph N/A   Mostly Cloudy
5:53 AM 21.9 °F 8.2 °F 17.1 °F 82% 29.93 in 10.0 mi NW 16.1 mph 21.9 mph N/A   Overcast
6:30 AM 21.2 °F 9.5 °F 17.6 °F 86% 29.90 in 10.0 mi NNW 11.5 mph 21.9 mph N/A   Overcast
6:53 AM 21.9 °F 9.8 °F 17.1 °F 82% 29.94 in 10.0 mi NW 12.7 mph 20.7 mph N/A   Overcast
7:53 AM 23.0 °F 11.1 °F 18.0 °F 81% 29.95 in 10.0 mi NW 12.7 mph 20.7 mph N/A   Overcast
8:04 AM 23.0 °F 11.7 °F 17.6 °F 80% 29.92 in 10.0 mi NW 11.5 mph 20.7 mph N/A   Overcast
8:35 AM 23.0 °F 11.7 °F 17.6 °F 80% 29.93 in 10.0 mi NW 11.5 mph - N/A   Overcast
8:53 AM 23.0 °F 11.1 °F 18.0 °F 81% 29.97 in 10.0 mi NW 12.7 mph - N/A   Overcast
9:53 AM 24.1 °F 10.6 °F 19.0 °F 81% 30.00 in 7.0 mi NW 17.3 mph 23.0 mph N/A   Overcast
10:16 AM 24.8 °F 11.5 °F 19.4 °F 80% 29.96 in 2.5 mi NW 17.3 mph 25.3 mph 0.00 in Rain Light Freezing Rain
10:24 AM 24.8 °F 12.9 °F 19.4 °F 80% 29.96 in 2.0 mi NW 13.8 mph 23.0 mph 0.00 in Snow Light Snow
10:37 AM 24.8 °F 12.4 °F 19.4 °F 80% 29.96 in 4.0 mi NNW 15.0 mph 21.9 mph 0.00 in   Overcast
10:53 AM 25.0 °F 11.7 °F 19.9 °F 81% 29.99 in 9.0 mi NNW 17.3 mph 23.0 mph 0.00 in   Overcast
11:53 AM 26.1 °F 13.6 °F 19.9 °F 78% 29.99 in 9.0 mi NW 16.1 mph - N/A   Overcast
12:06 PM 26.6 °F 14.3 °F 19.4 °F 74% 29.95 in 10.0 mi WNW 16.1 mph - N/A   Overcast
12:53 PM 27.0 °F 17.3 °F 21.0 °F 78% 30.00 in 9.0 mi NW 10.4 mph 20.7 mph 0.00 in   Overcast
1:18 PM 26.6 °F 15.7 °F 21.2 °F 80% 29.95 in 10.0 mi NW 12.7 mph 23.0 mph N/A   Overcast
1:53 PM 27.0 °F 16.7 °F 21.0 °F 78% 29.99 in 10.0 mi NNW 11.5 mph - N/A   Overcast
2:53 PM 26.1 °F 13.6 °F 21.0 °F 81% 29.99 in 10.0 mi NW 16.1 mph 23.0 mph N/A   Overcast
3:53 PM 25.0 °F 12.2 °F 19.9 °F 81% 29.99 in 10.0 mi NW 16.1 mph 21.9 mph N/A   Overcast
4:09 PM 24.8 °F 12.9 °F 19.4 °F 80% 29.96 in 10.0 mi NNW 13.8 mph 21.9 mph N/A   Overcast
4:31 PM 24.8 °F 13.4 °F 19.4 °F 80% 29.96 in 10.0 mi NW 12.7 mph 20.7 mph N/A   Overcast
4:53 PM 25.0 °F 13.1 °F 21.0 °F 85% 29.99 in 10.0 mi NNW 13.8 mph 23.0 mph N/A   Overcast
5:53 PM 25.0 °F 14.8 °F 19.9 °F 81% 29.99 in 10.0 mi NW 10.4 mph - N/A   Overcast
6:53 PM 25.0 °F 15.5 °F 21.0 °F 85% 29.98 in 10.0 mi NNW 9.2 mph - N/A   Overcast
7:53 PM 25.0 °F 17.1 °F 21.0 °F 85% 29.99 in 10.0 mi NW 6.9 mph - N/A   Overcast
8:53 PM 25.0 °F 17.1 °F 21.0 °F 85% 29.97 in 10.0 mi NW 6.9 mph - N/A   Overcast
9:53 PM 24.1 °F 14.4 °F 21.0 °F 88% 29.94 in 10.0 mi NW 9.2 mph - N/A   Overcast
10:53 PM 24.1 °F 14.4 °F 21.0 °F 88% 29.93 in 10.0 mi NW 9.2 mph - N/A   Overcast
11:10 PM 24.8 °F 17.9 °F 21.2 °F 86% 29.87 in 10.0 mi North 5.8 mph - N/A   Overcast
11:53 PM 24.1 °F 15.2 °F 21.0 °F 88% 29.90 in 10.0 mi NW 8.1 mph - N/A   Overcast